sat.trackr.live / text

‹ back to catalog

ONEWEB-0533

NORAD 55141 · 2023-004B

PAYLOAD ACTIVE UNKNOWN

§ Identity

Operator
Country
UK
Launch date
2023-01-10
Launch site
AFETR
Launch vehicle
Mass (kg)
RCS (m²)

Purposes: comms

External: N2YO · Heavens-Above · Gunter

§ Orbital elements

Epoch: 2026-09-20T03:27:19.159200Z

Period
109.72 min
Inclination
87.8982°
Eccentricity
0.0002021
Mean motion
13.12441736 rev/d
Perigee alt
1,212.2 km
Apogee alt
1,215.3 km
Semi-major
7,591.9 km
B*
-9.0681e-4
RAAN
331.8183°
Arg perigee
101.3265°
Mean anomaly
258.8091°
Rev number
18,051

§ Raw data

ONEWEB-05331 55141U 23004B   26263.14397175 -.00000313  00000+0 -90681-3 0  99962 55141  87.8982 331.8183 0002021 101.3265 258.8091 13.12441736180510

JSON: /api/v1/satellites/55141 · /tle

For live sub-satellite position, see the globe view (requires WebGL).

§ Visibility from observer

Set your observer location to see the next 7 days of passes ≥ 10°. The values pass through the URL so the page stays shareable.

No JS? Fill the form by hand. The geolocation button needs JavaScript.